Location: D�rnast
(49.6426°N, 11.9755°E)
Time: 00:44:23
(UTC+00:00)

Cosmos 2082 Rocket - Visible Passes

Search period start: 11 May 2021 00:00
Search period end: 21 May 2021 00:00
Orbit: 835 x 852 km, 71.0° (Epoch: 10 May)

Date Brightness Start Highest point End Pass type
(mag) Time Alt. Az. Time Alt. Az. Time Alt. Az.
11 May 3.0 19:53:59 10° NNW 19:59:19 41° NE 20:03:59 13° ESE visible
11 May 3.0 21:38:11 10° NW 21:43:24 40° WSW 21:45:50 26° SSW visible
12 May 3.0 19:39:26 10° NNW 19:44:44 40° NE 19:49:52 11° ESE visible
12 May 3.0 21:23:37 10° NW 21:28:51 41° WSW 21:31:43 24° SSW visible
13 May 3.0 19:24:54 10° NNW 19:30:10 39° NE 19:35:23 10° ESE visible
13 May 3.0 21:09:02 10° NW 21:14:19 43° WSW 21:17:39 21° SSW visible
14 May 2.9 20:54:27 10° NW 20:59:47 45° WSW 21:03:37 18° S visible
15 May 2.9 20:39:53 10° NW 20:45:15 47° WSW 20:49:37 15° S visible
16 May 2.9 20:25:19 10° NW 20:30:42 48° WSW 20:35:40 12° S visible
17 May 2.9 20:10:45 10° NW 20:16:09 50° WSW 20:21:34 10° S visible
18 May 2.8 19:56:10 10° NW 20:01:37 52° WSW 20:07:03 10° S visible
19 May 2.8 19:41:36 10° NW 19:47:05 54° WSW 19:52:33 10° S visible
20 May 2.8 19:27:02 10° NW 19:32:33 57° WSW 19:38:02 10° S visible
